FW5816 Weather Reports


Display with metric or nautical units.
time (UTC)temp
F
wind
direction
speed
MPH
gust
MPH
rain 1hr
in
rain 24hr
in
rain mn
in
humidity
%
barometer
mb
20260901163519 90 304 4.0 12.0 0.00 0.00 0.00 63 1019.3
20260901163036 90 259 7.0 12.0 0.00 0.00 0.00 63 1019.2
20260901162520 90 304 5.0 9.0 0.00 0.00 0.00 63 1019.2
20260901162016 89 302 5.0 12.0 0.00 0.00 0.00 65 1019.4
20260901161535 89 276 5.0 12.0 0.00 0.00 0.00 65 1019.4
20260901161020 89 300 5.0 13.0 0.00 0.00 0.00 64 1019.4
20260901160517 89 295 6.0 13.0 0.00 0.00 0.00 64 1019.5
20260901160041 90 281 5.0 8.0 0.00 0.00 0.00 65 1019.4
20260901155520 89 271 2.0 7.0 0.00 0.00 0.00 65 1019.5
20260901155019 89 293 3.0 10.0 0.00 0.00 0.00 66 1019.4
20260901154537 89 240 4.0 10.0 0.00 0.00 0.00 66 1019.5
20260901154019 89 243 3.0 8.0 0.00 0.00 0.00 68 1019.5
20260901153518 88 158 4.0 11.0 0.00 0.00 0.00 67 1019.5
20260901153040 88 210 4.0 11.0 0.00 0.00 0.00 67 1019.5
20260901152516 88 307 2.0 11.0 0.00 0.00 0.00 68 1019.5
20260901152019 87 290 4.0 11.0 0.00 0.00 0.00 68 1019.5
20260901151536 87 205 5.0 11.0 0.00 0.00 0.00 67 1019.5
20260901151020 87 255 3.0 7.0 0.00 0.00 0.00 68 1019.6
20260901150519 87 249 2.0 7.0 0.00 0.00 0.00 68 1019.6
20260901150038 87 276 3.0 9.0 0.00 0.00 0.00 70 1019.6
20260901145519 86 296 4.0 10.0 0.00 0.00 0.00 70 1019.7
20260901145019 86 226 5.0 10.0 0.00 0.00 0.00 69 1019.8
20260901144538 86 297 2.0 6.0 0.00 0.00 0.00 70 1019.6
20260901144018 86 278 2.0 8.0 0.00 0.00 0.00 71 1019.6
20260901143517 85 255 4.0 8.0 0.00 0.00 0.00 70 1019.6
20260901143043 85 237 2.0 6.0 0.00 0.00 0.00 72 1019.5
20260901142518 85 290 3.0 6.0 0.00 0.00 0.00 71 1019.6
20260901142020 84 296 4.0 6.0 0.00 0.00 0.00 72 1019.6
20260901141545 84 282 2.0 7.0 0.00 0.00 0.00 74 1019.6
20260901141019 84 274 4.0 7.0 0.00 0.00 0.00 74 1019.6
20260901140517 84 157 3.0 6.0 0.00 0.00 0.00 74 1019.7
20260901140036 83 298 3.0 7.0 0.00 0.00 0.00 75 1019.7
20260901135519 83 299 2.0 7.0 0.00 0.00 0.00 75 1019.7
20260901135018 83 260 3.0 6.0 0.00 0.00 0.00 75 1019.8
20260901134536 83 291 3.0 6.0 0.00 0.00 0.00 74 1019.8
20260901134019 84 307 1.0 4.0 0.00 0.00 0.00 75 1019.8
20260901133519 84 184 1.0 3.0 0.00 0.00 0.00 73 1019.8
20260901133042 85 138 0.0 2.0 0.00 0.00 0.00 74 1019.7
20260901132523 84 0 0.0 2.0 0.00 0.00 0.00 75 1019.8
20260901132020 84 136 0.0 2.0 0.00 0.00 0.00 75 1019.8
20260901131537 84 0 0.0 2.0 0.00 0.00 0.00 76 1019.9
20260901131019 83 0 0.0 4.0 0.00 0.00 0.00 78 1019.8
20260901130520 82 136 0.0 4.0 0.00 0.00 0.00 77 1019.8
20260901130037 82 0 0.0 4.0 0.00 0.00 0.00 78 1019.8
20260901125517 82 0 0.0 0.0 0.00 0.00 0.00 78 1019.8
20260901125017 81 0 0.0 0.0 0.00 0.00 0.00 79 1019.8
20260901124550 81 0 0.0 0.0 0.00 0.00 0.00 79 1019.9
20260901124018 81 0 0.0 0.0 0.00 0.00 0.00 79 1019.9
20260901123521 80 0 0.0 0.0 0.00 0.00 0.00 79 1019.8
20260901123038 80 0 0.0 0.0 0.00 0.00 0.00 79 1019.8
20260901122518 81 0 0.0 0.0 0.00 0.00 0.00 79 1019.8
20260901122019 80 0 0.0 0.0 0.00 0.00 0.00 81 1019.8
20260901121545 78 0 0.0 0.0 0.00 0.00 0.00 85 1019.7
20260901121018 77 0 0.0 0.0 0.00 0.00 0.00 86 1019.7
20260901120524 76 0 0.0 0.0 0.00 0.00 0.00 88 1019.8
20260901120036 75 0 0.0 0.0 0.00 0.00 0.00 89 1019.6
20260901115523 74 0 0.0 0.0 0.00 0.00 0.00 90 1019.7
20260901115018 73 0 0.0 0.0 0.00 0.00 0.00 91 1019.6
20260901114535 73 0 0.0 0.0 0.00 0.00 0.00 91 1019.4
20260901114019 72 0 0.0 0.0 0.00 0.00 0.00 92 1019.4
20260901113520 72 0 0.0 0.0 0.00 0.00 0.00 93 1019.4
20260901113038 71 0 0.0 0.0 0.00 0.00 0.00 94 1019.3
20260901112518 71 0 0.0 0.0 0.00 0.00 0.00 94 1019.1
20260901112018 71 0 0.0 0.0 0.00 0.00 0.00 94 1019.0
20260901111625 71 0 0.0 0.0 0.00 0.00 0.00 94 1018.9
20260901111020 71 0 0.0 0.0 0.00 0.00 0.00 93 1018.9
20260901110518 71 0 0.0 0.0 0.00 0.00 0.00 94 1018.7
20260901110045 71 0 0.0 0.0 0.00 0.00 0.00 93 1018.7
20260901105519 71 0 0.0 0.0 0.00 0.00 0.00 93 1018.7
20260901105020 71 0 0.0 0.0 0.00 0.00 0.00 93 1018.6
20260901104535 71 0 0.0 0.0 0.00 0.00 0.00 93 1018.6
20260901104018 71 0 0.0 0.0 0.00 0.00 0.00 93 1018.5
20260901103517 71 0 0.0 0.0 0.00 0.00 0.00 93 1018.4
20260901103034 71 0 0.0 0.0 0.00 0.00 0.00 93 1018.4
20260901102521 71 0 0.0 0.0 0.00 0.00 0.00 93 1018.4
20260901102016 72 0 0.0 0.0 0.00 0.00 0.00 92 1018.4
20260901101534 72 0 0.0 0.0 0.00 0.00 0.00 92 1018.4
20260901101023 72 0 0.0 0.0 0.00 0.00 0.00 92 1018.4
20260901100520 72 0 0.0 0.0 0.00 0.00 0.00 92 1018.3
20260901100037 72 0 0.0 0.0 0.00 0.00 0.00 92 1018.2
20260901095519 72 0 0.0 0.0 0.00 0.00 0.00 92 1018.2
20260901095017 72 0 0.0 0.0 0.00 0.00 0.00 92 1018.0
20260901094535 72 0 0.0 0.0 0.00 0.00 0.00 92 1018.0
20260901094021 72 0 0.0 0.0 0.00 0.00 0.00 92 1017.9
20260901093519 72 0 0.0 0.0 0.00 0.00 0.00 91 1018.0
20260901093043 72 0 0.0 0.0 0.00 0.00 0.00 91 1017.9
20260901092518 73 0 0.0 0.0 0.00 0.00 0.00 90 1017.9
20260901092018 73 0 0.0 0.0 0.00 0.00 0.00 90 1017.8
20260901091554 73 0 0.0 0.0 0.00 0.00 0.00 90 1017.7
20260901091021 73 0 0.0 0.0 0.00 0.00 0.00 89 1017.7
20260901090519 73 0 0.0 0.0 0.00 0.00 0.00 89 1017.6
20260901090036 73 0 0.0 0.0 0.00 0.00 0.00 89 1017.6
20260901085520 73 0 0.0 0.0 0.00 0.00 0.00 89 1017.5
20260901085020 74 0 0.0 0.0 0.00 0.00 0.00 88 1017.6
20260901084535 74 0 0.0 0.0 0.00 0.00 0.00 88 1017.5
20260901084020 74 0 0.0 0.0 0.00 0.00 0.00 88 1017.5
20260901083518 74 0 0.0 0.0 0.00 0.00 0.00 88 1017.6
20260901083036 74 0 0.0 0.0 0.00 0.00 0.00 88 1017.6
20260901082518 74 0 0.0 0.0 0.00 0.00 0.00 87 1017.4
20260901082018 74 0 0.0 0.0 0.00 0.00 0.00 87 1017.4
20260901081536 74 0 0.0 0.0 0.00 0.00 0.00 87 1017.4
20260901081020 74 0 0.0 0.0 0.00 0.00 0.00 87 1017.5
20260901080520 74 0 0.0 0.0 0.00 0.00 0.00 87 1017.4
20260901080048 74 0 0.0 0.0 0.00 0.00 0.00 87 1017.3
20260901075520 75 0 0.0 0.0 0.00 0.00 0.00 87 1017.3
20260901075022 75 0 0.0 0.0 0.00 0.00 0.00 87 1017.2
20260901074535 74 0 0.0 0.0 0.00 0.00 0.00 88 1017.2
20260901074019 74 0 0.0 0.0 0.00 0.00 0.00 88 1017.3
20260901073519 74 0 0.0 0.0 0.00 0.00 0.00 88 1017.4
20260901073035 74 0 0.0 0.0 0.00 0.00 0.00 88 1017.3
20260901072516 74 0 0.0 0.0 0.00 0.00 0.00 88 1017.5
20260901072017 74 0 0.0 0.0 0.00 0.00 0.00 88 1017.5
20260901071536 74 0 0.0 0.0 0.00 0.00 0.00 88 1017.6
20260901071023 74 0 0.0 0.0 0.00 0.00 0.00 88 1017.5
20260901070520 74 0 0.0 0.0 0.00 0.00 0.00 87 1017.6
20260901070038 74 0 0.0 0.0 0.00 0.00 0.00 87 1017.6
20260901065519 74 0 0.0 0.0 0.00 0.00 0.00 88 1017.8
20260901065020 74 0 0.0 0.0 0.00 0.00 0.00 88 1017.8
20260901064540 75 0 0.0 0.0 0.00 0.00 0.00 87 1017.8
20260901064018 75 0 0.0 0.0 0.00 0.00 0.00 87 1017.8
20260901063519 75 0 0.0 0.0 0.00 0.00 0.00 86 1017.9
20260901063037 75 0 0.0 0.0 0.00 0.00 0.00 86 1017.9
20260901062516 75 0 0.0 0.0 0.00 0.00 0.00 86 1017.9
20260901062020 75 0 0.0 0.0 0.00 0.00 0.00 86 1017.9
20260901061538 76 0 0.0 0.0 0.00 0.00 0.00 86 1018.0
20260901061020 76 0 0.0 0.0 0.00 0.00 0.00 86 1017.9
20260901060519 76 0 0.0 0.0 0.00 0.00 0.00 86 1018.0
20260901060035 76 0 0.0 0.0 0.00 0.00 0.00 86 1018.1
20260901055517 76 0 0.0 0.0 0.00 0.00 0.00 86 1018.1
20260901055017 76 0 0.0 0.0 0.00 0.00 0.00 86 1018.2
20260901054535 76 0 0.0 0.0 0.00 0.00 0.00 86 1018.1
20260901054019 76 0 0.0 1.0 0.00 0.00 0.00 86 1018.1
20260901053517 76 0 0.0 2.0 0.00 0.00 0.00 85 1018.1
20260901053037 76 245 0.0 2.0 0.00 0.00 0.00 86 1018.2
20260901052517 76 0 0.0 1.0 0.00 0.00 0.00 86 1018.3
20260901052016 76 0 0.0 1.0 0.00 0.00 0.00 86 1018.2
20260901051537 76 245 0.0 1.0 0.00 0.00 0.00 86 1018.2
20260901051020 76 245 0.0 1.0 0.00 0.00 0.00 86 1018.2
20260901050518 76 0 0.0 2.0 0.00 0.00 0.00 86 1018.3
20260901050037 77 0 0.0 2.0 0.00 0.00 0.00 85 1018.3
20260901045519 77 245 0.0 1.0 0.00 0.00 0.00 84 1018.3
20260901045020 77 0 0.0 0.0 0.00 0.00 0.00 84 1018.3
20260901044542 77 0 0.0 0.0 0.00 0.00 0.00 84 1018.3
20260901044018 77 0 0.0 0.0 0.00 0.00 0.00 84 1018.3
20260901043517 77 0 0.0 0.0 0.00 0.00 0.00 84 1018.2
20260901043042 77 0 0.0 0.0 0.00 0.00 0.00 84 1018.2
20260901042517 77 0 0.0 0.0 0.00 0.00 0.00 84 1018.3
20260901042022 77 0 0.0 0.0 0.00 0.00 0.00 84 1018.3
20260901041536 77 0 0.0 0.0 0.00 0.00 0.00 84 1018.2
20260901041018 77 0 0.0 0.0 0.00 0.00 0.00 84 1018.3
20260901040517 77 0 0.0 0.0 0.00 0.00 0.00 84 1018.1
20260901040044 77 0 0.0 0.0 0.00 0.00 0.00 84 1018.2
20260901035522 78 0 0.0 0.0 0.00 0.00 0.00 84 1018.1
20260901035020 78 0 0.0 0.0 0.00 0.00 0.00 84 1018.1
20260901034550 78 0 0.0 0.0 0.00 0.00 0.00 84 1018.2
20260901034018 78 0 0.0 0.0 0.00 0.00 0.00 84 1018.1
20260901033520 78 0 0.0 0.0 0.00 0.00 0.00 83 1018.2
20260901033055 78 0 0.0 0.0 0.00 0.00 0.00 83 1018.1
20260901032517 78 0 0.0 0.0 0.00 0.00 0.00 83 1018.1
20260901032017 78 0 0.0 0.0 0.00 0.00 0.00 82 1018.2
20260901031536 78 0 0.0 0.0 0.00 0.00 0.00 82 1018.2
20260901031019 79 0 0.0 0.0 0.00 0.00 0.00 82 1018.1
20260901030523 79 0 0.0 1.0 0.00 0.00 0.00 81 1018.0
20260901030037 79 0 0.0 1.0 0.00 0.00 0.00 81 1018.0
20260901025517 79 0 0.0 1.0 0.00 0.00 0.00 80 1018.1
20260901025017 79 245 0.0 1.0 0.00 0.00 0.00 79 1018.0
20260901024546 79 245 0.0 1.0 0.00 0.00 0.00 79 1018.1
20260901024018 79 245 0.0 1.0 0.00 0.00 0.00 79 1018.0
20260901023521 79 0 0.0 0.0 0.00 0.00 0.00 78 1018.0
20260901023038 80 0 0.0 0.0 0.00 0.00 0.00 78 1018.0
20260901022520 80 0 0.0 0.0 0.00 0.00 0.00 77 1018.0
20260901022021 80 0 0.0 0.0 0.00 0.00 0.00 77 1017.9
20260901021537 80 0 0.0 1.0 0.00 0.00 0.00 77 1018.0
20260901021017 80 0 0.0 1.0 0.00 0.00 0.00 76 1017.9
20260901020520 81 245 0.0 1.0 0.00 0.00 0.00 76 1017.8
20260901020038 81 0 0.0 1.0 0.00 0.00 0.00 75 1017.6
20260901015519 81 245 0.0 1.0 0.00 0.00 0.00 75 1017.7
20260901015022 81 0 0.0 0.0 0.00 0.00 0.00 74 1017.6
20260901014538 82 0 0.0 0.0 0.00 0.00 0.00 74 1017.6
20260901014019 82 0 0.0 0.0 0.00 0.00 0.00 72 1017.6
20260901013520 82 0 0.0 0.0 0.00 0.00 0.00 71 1017.5
20260901013035 82 0 0.0 0.0 0.00 0.00 0.00 72 1017.4
20260901012518 83 0 0.0 0.0 0.00 0.00 0.00 71 1017.4
20260901012020 83 0 0.0 0.0 0.00 0.00 0.00 70 1017.2
20260901011543 83 0 0.0 0.0 0.00 0.00 0.00 70 1017.3
20260901011019 84 0 0.0 0.0 0.00 0.00 0.00 70 1017.3
20260901010516 84 0 0.0 0.0 0.00 0.00 0.00 69 1017.2
20260901010041 84 0 0.0 0.0 0.00 0.00 0.00 69 1017.2
20260901005519 85 0 0.0 1.0 0.00 0.00 0.00 68 1017.1
20260901005024 85 0 0.0 1.0 0.00 0.00 0.00 68 1017.2
20260901004539 85 0 0.0 1.0 0.00 0.00 0.00 67 1017.2
20260901004020 86 0 0.0 1.0 0.00 0.00 0.00 66 1017.2
20260901003521 86 0 0.0 1.0 0.00 0.00 0.00 66 1017.2
20260901003034 87 245 0.0 1.0 0.00 0.00 0.00 66 1017.2
20260901002525 87 0 0.0 1.0 0.00 0.00 0.00 65 1017.1
20260901002020 87 0 0.0 1.0 0.00 0.00 0.00 64 1017.1
20260901001539 88 0 0.0 1.0 0.00 0.00 0.00 64 1017.1
20260901001019 88 245 0.0 2.0 0.00 0.00 0.00 63 1017.1
20260901000522 89 245 0.0 3.0 0.00 0.00 0.00 62 1017.1
20260901000034 90 0 0.0 3.0 0.00 0.00 0.00 61 1017.0
20260831235518 90 245 1.0 5.0 0.00 0.00 0.00 60 1017.1
20260831235016 91 192 0.0 5.0 0.00 0.00 0.00 59 1017.1
20260831234539 91 235 1.0 5.0 0.00 0.00 0.00 59 1017.2
20260831234018 91 264 2.0 5.0 0.00 0.00 0.00 59 1017.1
20260831233524 91 266 1.0 5.0 0.00 0.00 0.00 59 1017.1
20260831233036 92 220 1.0 5.0 0.00 0.00 0.00 59 1017.1
20260831232520 92 229 1.0 5.0 0.00 0.00 0.00 58 1017.1
20260831232019 92 228 1.0 6.0 0.00 0.00 0.00 58 1017.1
20260831231535 92 267 1.0 6.0 0.00 0.00 0.00 58 1017.1
20260831231024 92 208 3.0 7.0 0.00 0.00 0.00 57 1017.0
20260831230519 92 273 2.0 7.0 0.00 0.00 0.00 57 1017.0
20260831230036 93 186 2.0 12.0 0.00 0.00 0.00 57 1017.0
20260831225520 93 255 3.0 12.0 0.00 0.00 0.00 57 1017.1
20260831225021 93 240 2.0 7.0 0.00 0.00 0.00 56 1017.0
20260831224537 94 266 3.0 6.0 0.00 0.00 0.00 55 1016.9
20260831224020 94 255 1.0 6.0 0.00 0.00 0.00 56 1017.0
20260831223520 94 186 1.0 6.0 0.00 0.00 0.00 55 1017.1
20260831223040 94 131 1.0 6.0 0.00 0.00 0.00 57 1017.2
20260831222521 94 121 3.0 6.0 0.00 0.00 0.00 57 1017.2
20260831222022 94 217 2.0 8.0 0.00 0.00 0.00 57 1017.3
20260831221539 94 217 3.0 8.0 0.00 0.00 0.00 57 1017.4
20260831221017 94 139 2.0 5.0 0.00 0.00 0.00 57 1017.4
20260831220517 93 198 1.0 4.0 0.00 0.00 0.00 57 1017.4
20260831220035 92 136 1.0 4.0 0.00 0.00 0.00 58 1017.5
20260831215516 92 133 1.0 4.0 0.00 0.00 0.00 59 1017.6
20260831215019 92 251 2.0 6.0 0.00 0.00 0.00 58 1017.7
20260831214543 92 273 1.0 7.0 0.00 0.00 0.00 58 1017.7
20260831214020 93 228 4.0 8.0 0.00 0.00 0.00 56 1017.7
20260831213520 93 194 3.0 8.0 0.00 0.00 0.00 56 1017.7
20260831213041 94 266 3.0 8.0 0.00 0.00 0.00 55 1017.7
20260831212520 94 248 2.0 7.0 0.00 0.00 0.00 56 1017.7
20260831212020 93 302 5.0 8.0 0.00 0.00 0.00 55 1017.8
20260831211537 93 292 4.0 10.0 0.00 0.00 0.00 55 1017.7
20260831211020 93 191 6.0 10.0 0.00 0.00 0.00 56 1017.8
20260831210520 94 283 1.0 7.0 0.00 0.00 0.00 55 1017.9
20260831210039 93 128 4.0 7.0 0.00 0.00 0.00 56 1017.8
20260831205520 93 134 2.0 7.0 0.00 0.00 0.00 56 1017.9
20260831205021 93 279 3.0 7.0 0.00 0.00 0.00 56 1018.0
20260831204551 93 250 3.0 10.0 0.00 0.00 0.00 56 1018.0
20260831204020 93 219 5.0 10.0 0.00 0.00 0.00 56 1018.0
20260831203517 93 282 4.0 8.0 0.00 0.00 0.00 55 1018.1
20260831203055 93 285 2.0 6.0 0.00 0.00 0.00 56 1018.1
20260831202519 92 266 2.0 6.0 0.00 0.00 0.00 57 1018.2
20260831202018 93 218 2.0 6.0 0.00 0.00 0.00 56 1018.2
20260831201539 92 146 1.0 10.0 0.00 0.00 0.00 58 1018.2
20260831201022 92 247 3.0 10.0 0.00 0.00 0.00 57 1018.4
20260831200515 93 240 5.0 10.0 0.00 0.00 0.00 56 1018.5
20260831200040 92 165 1.0 7.0 0.00 0.00 0.00 57 1018.5
20260831195520 91 185 2.0 8.0 0.00 0.00 0.00 60 1018.5
20260831195024 91 281 5.0 8.0 0.00 0.00 0.00 59 1018.7
20260831194541 92 293 2.0 5.0 0.00 0.00 0.00 58 1018.7
20260831194019 92 47 1.0 6.0 0.00 0.00 0.00 57 1018.7
20260831193526 92 338 2.0 6.0 0.00 0.00 0.00 58 1018.7
20260831193037 93 245 3.0 6.0 0.00 0.00 0.00 56 1018.9
20260831192519 92 283 3.0 8.0 0.00 0.00 0.00 59 1018.8
20260831192020 93 211 3.0 10.0 0.00 0.00 0.00 59 1018.9
20260831191538 92 248 4.0 10.0 0.00 0.00 0.00 59 1019.0
20260831191017 92 177 4.0 9.0 0.00 0.00 0.00 60 1019.1
20260831190520 91 185 4.0 10.0 0.00 0.00 0.00 60 1019.0
20260831190052 91 296 5.0 10.0 0.00 0.00 0.00 60 1019.1
20260831185523 91 318 2.0 10.0 0.00 0.00 0.00 59 1019.1
20260831185019 91 255 4.0 10.0 0.00 0.00 0.00 59 1019.2
20260831184539 91 270 3.0 11.0 0.00 0.00 0.00 61 1019.2
20260831184019 91 281 3.0 11.0 0.00 0.00 0.00 60 1019.1
20260831183521 92 224 3.0 11.0 0.00 0.00 0.00 62 1019.2
20260831183039 91 269 5.0 11.0 0.00 0.00 0.00 62 1019.3
20260831182521 91 231 3.0 9.0 0.00 0.00 0.00 62 1019.3
20260831182018 90 162 3.0 7.0 0.00 0.00 0.00 64 1019.5
20260831181549 89 286 4.0 6.0 0.00 0.00 0.00 64 1019.5
20260831181020 89 249 2.0 7.0 0.00 0.00 0.00 66 1019.5
20260831180517 88 293 3.0 8.0 0.00 0.00 0.00 64 1019.5
20260831180037 89 307 4.0 8.0 0.00 0.00 0.00 64 1019.5
20260831175517 89 237 3.0 10.0 0.00 0.00 0.00 63 1019.7
20260831175019 90 310 2.0 10.0 0.00 0.00 0.00 64 1019.6
20260831174543 90 280 2.0 9.0 0.00 0.00 0.00 63 1019.6
20260831174022 89 217 3.0 8.0 0.00 0.00 0.00 64 1019.6
20260831173520 89 282 4.0 11.0 0.00 0.00 0.00 64 1019.6
20260831173036 90 216 4.0 11.0 0.00 0.00 0.00 63 1019.8
20260831172519 90 238 5.0 11.0 0.00 0.00 0.00 62 1019.8
20260831172017 90 326 3.0 9.0 0.00 0.00 0.00 64 1019.8
20260831171536 90 276 3.0 11.0 0.00 0.00 0.00 64 1019.9
20260831171022 89 229 5.0 11.0 0.00 0.00 0.00 65 1019.9
20260831170519 90 216 3.0 9.0 0.00 0.00 0.00 64 1019.9
20260831170039 89 269 4.0 9.0 0.00 0.00 0.00 64 1020.0
20260831165524 90 216 2.0 9.0 0.00 0.00 0.00 65 1020.0
20260831165020 89 247 5.0 10.0 0.00 0.00 0.00 65 1020.0
20260831164538 89 195 5.0 10.0 0.00 0.00 0.00 64 1019.9
20260831164021 89 264 2.0 9.0 0.00 0.00 0.00 65 1020.2